Terminal Aerodrome Forecast
Issued by NWS Paducah, KY

Home | Current Version | Previous Version | Text Only | Print | Product List | Glossary On
Versions: 1 2 3 4 5 6 7 8 9 10 11 12 13 14 15 16 17 18 19 20 21
000
FTUS43 KPAH 200300 AAA
TAFPAH
TAF AMD
KPAH 200353Z 2004/2024 07004KT P6SM SCT022 OVC060
     FM201100 05002KT P6SM OVC022
     FM201500 05002KT 4SM BR OVC008
     FM201800 06003KT P6SM BKN015
     FM202100 07003KT P6SM BKN050=

USA.gov is the U.S. government's official web portal to all federal, state and local government web resources and services.